This is the latest recevied weather packets stored in our database for station/object W0DXV. If no packets are shown the sender has not sent any weather packets the latest 10 day(s).
| Time | Temp. | Humidity | Pressure | Rain* | Wind** | Luminosity | Snow |
|---|---|---|---|---|---|---|---|
| 1778026128 | 21.67° C | 50% | 1009.6 hPa | 0 mm | - | 3 W/m² | - |
| 1778025826 | 21.67° C | 50% | 1009.4 hPa | 0 mm | - | 5 W/m² | - |
| 1778025522 | 22.22° C | 49% | 1009.3 hPa | 0 mm | - | 7 W/m² | - |
| 1778025220 | 22.22° C | 49% | 1009.4 hPa | 0 mm | - | 10 W/m² | - |
| 1778024917 | 22.22° C | 48% | 1009.4 hPa | 0 mm | - | 11 W/m² | - |
| 1778024615 | 22.78° C | 48% | 1009.2 hPa | 0 mm | - | 13 W/m² | - |
| 1778024311 | 22.78° C | 48% | 1009.1 hPa | 0 mm | - | 15 W/m² | - |
| 1778024009 | 22.78° C | 47% | 1009.2 hPa | 0 mm | - | 18 W/m² | - |
| 1778023706 | 23.33° C | 48% | 1009.3 hPa | 0 mm | - | 21 W/m² | - |
| 1778023404 | 23.33° C | 45% | 1009.1 hPa | 0 mm | - | 26 W/m² | - |
| 1778023100 | 23.33° C | 45% | 1009.1 hPa | 0 mm | - | 36 W/m² | - |
| 1778022799 | 23.89° C | 46% | 1009.1 hPa | 0 mm | - | 37 W/m² | - |
| 1778022497 | 23.89° C | 45% | 1009 hPa | 0 mm | - | 45 W/m² | - |
| 1778022193 | 23.89° C | 45% | 1009.1 hPa | 0 mm | - | 45 W/m² | - |
| 1778021890 | 23.89° C | 47% | 1009.2 hPa | 0 mm | - | 45 W/m² | - |
| 1778021587 | 23.89° C | 45% | 1009.2 hPa | 0 mm | - | 67 W/m² | - |
| 1778021282 | 23.89° C | 43% | 1009.1 hPa | 0 mm | - | 72 W/m² | - |
| 1778020980 | 23.89° C | 43% | 1008.9 hPa | 0 mm | - | 78 W/m² | - |
| 1778020677 | 23.89° C | 44% | 1009 hPa | 0 mm | - | 58 W/m² | - |
| 1778020374 | 23.89° C | 44% | 1009 hPa | 0 mm | - | 57 W/m² | - |
| 1778020070 | 24.44° C | 44% | 1009 hPa | 0 mm | - | 38 W/m² | - |
| 1778019766 | 25° C | 41% | 1009.4 hPa | 0 mm | - | 30 W/m² | - |
| 1778019463 | 25° C | 41% | 1009.3 hPa | 0 mm | - | 41 W/m² | - |
| 1778019160 | 25° C | 40% | 1009.4 hPa | 0 mm | - | 49 W/m² | - |
| 1778018856 | 25° C | 42% | 1009.4 hPa | 0 mm | - | 61 W/m² | - |
* Rain latest hour (hover to see other rain measurements)
** Current wind speed in m/s (hover to see current wind gust speed)